Time,TemperatureF,DewpointF,PressureIn,WindDirection,WindDirectionDegrees,WindSpeedMPH,WindSpeedGustMPH,Humidity,HourlyPrecipIn,Conditions,Clouds,dailyrainin,SolarRadiationWatts/m^2,SoftwareType,DateUTC
2013-11-04 00:42:00,57.0,39.0,29.95,SW,235,20.0,28.0,51,-99.99,,,-99.99,0.000000,,2013-11-04 07:42:00,
2013-11-04 01:42:00,57.0,37.0,29.96,WSW,241,20.0,26.0,47,-99.99,,,-99.99,0.000000,,2013-11-04 08:42:00,
2013-11-04 02:43:00,57.0,37.0,29.96,SW,232,18.0,25.0,47,-99.99,,,-99.99,0.000000,,2013-11-04 09:43:00,
2013-11-04 03:42:00,54.0,40.0,29.96,SW,236,7.0,13.0,57,-99.99,,,-99.99,0.000000,,2013-11-04 10:42:00,
2013-11-04 04:42:00,54.0,39.0,29.97,SW,233,7.0,12.0,57,-99.99,,,-99.99,0.000000,,2013-11-04 11:42:00,
2013-11-04 05:42:00,54.0,40.0,29.98,West,277,6.0,9.0,59,-99.99,,,-99.99,0.000000,,2013-11-04 12:42:00,
2013-11-04 07:42:00,51.0,43.0,30.00,WNW,289,10.0,14.0,76,-99.99,,,-99.99,99.019997,,2013-11-04 14:42:00,
2013-11-04 08:11:00,53.0,41.0,30.01,WNW,293,6.0,9.0,64,-99.99,,,-99.99,181.309998,,2013-11-04 15:11:00,
2013-11-04 08:22:00,54.0,41.0,30.02,West,278,3.0,7.0,60,-99.99,,,-99.99,223.149994,,2013-11-04 15:22:00,
2013-11-04 08:42:00,53.0,43.0,30.02,WNW,293,7.0,11.0,70,-99.99,,,-99.99,264.989990,,2013-11-04 15:42:00,
2013-11-04 09:12:00,53.0,45.0,30.03,WNW,300,10.0,14.0,73,-99.99,,,-99.99,345.179993,,2013-11-04 16:12:00,
2013-11-04 09:23:00,54.0,45.0,30.03,WNW,291,12.0,15.0,72,-99.99,,,-99.99,382.140015,,2013-11-04 16:23:00,
2013-11-04 09:43:00,55.0,46.0,30.03,WNW,285,10.0,14.0,71,-99.99,,,-99.99,417.010010,,2013-11-04 16:43:00,
2013-11-04 10:12:00,57.0,46.0,30.03,East,81,5.0,9.0,68,-99.99,,,-99.99,479.769989,,2013-11-04 17:12:00,
2013-11-04 11:42:00,58.0,45.0,30.02,East,100,8.0,14.0,63,-99.99,,,-99.99,351.459991,,2013-11-04 18:42:00,
2013-11-04 11:52:00,56.0,45.0,30.02,East,86,7.0,15.0,66,-99.99,,,-99.99,157.600006,,2013-11-04 18:52:00,
2013-11-04 12:01:00,56.0,45.0,30.02,East,86,7.0,15.0,66,-99.99,,,-99.99,157.600006,,2013-11-04 19:01:00,
2013-11-04 12:42:00,57.0,45.0,29.99,East,80,10.0,18.0,64,-99.99,,,-99.99,226.630005,,2013-11-04 19:42:00,
2013-11-04 13:42:00,59.0,46.0,29.96,East,80,12.0,17.0,62,-99.99,,,-99.99,203.619995,,2013-11-04 20:42:00,
2013-11-04 14:45:00,61.0,43.0,29.95,East,85,6.0,12.0,51,-99.99,,,-99.99,324.959991,,2013-11-04 21:45:00,
2013-11-04 15:43:00,61.0,41.0,29.94,ENE,76,8.0,13.0,47,-99.99,,,-99.99,165.970001,,2013-11-04 22:43:00,
2013-11-04 15:53:00,62.0,40.0,29.94,East,83,6.0,11.0,45,-99.99,,,-99.99,220.360001,,2013-11-04 22:53:00,
2013-11-04 16:03:00,62.0,40.0,29.94,East,83,6.0,11.0,45,-99.99,,,-99.99,220.360001,,2013-11-04 23:03:00,
2013-11-04 16:43:00,61.0,40.0,29.94,ENE,75,10.0,15.0,44,-99.99,,,-99.99,108.779999,,2013-11-04 23:43:00,
2013-11-04 17:42:00,60.0,38.0,29.95,SE,145,4.0,8.0,43,-99.99,,,-99.99,6.280000,,2013-11-05 00:42:00,
2013-11-04 18:42:00,58.0,39.0,29.95,East,98,5.0,9.0,49,-99.99,,,-99.99,0.000000,,2013-11-05 01:42:00,
2013-11-04 18:52:00,59.0,37.0,29.95,ESE,103,8.0,14.0,43,-99.99,,,-99.99,0.000000,,2013-11-05 01:52:00,
2013-11-04 19:11:00,58.0,39.0,29.95,ENE,67,8.0,11.0,48,-99.99,,,-99.99,0.000000,,2013-11-05 02:11:00,
2013-11-04 20:44:00,58.0,38.0,29.95,ENE,59,9.0,13.0,46,-99.99,,,-99.99,0.000000,,2013-11-05 03:44:00,
2013-11-04 21:13:00,58.0,38.0,29.96,NE,49,7.0,10.0,46,-99.99,,,-99.99,0.000000,,2013-11-05 04:13:00,
2013-11-04 21:43:00,60.0,37.0,29.96,ENE,68,6.0,14.0,43,-99.99,,,-99.99,0.000000,,2013-11-05 04:43:00,
2013-11-04 21:53:00,59.0,38.0,29.96,ENE,66,6.0,15.0,45,-99.99,,,-99.99,0.000000,,2013-11-05 04:53:00,
2013-11-04 22:03:00,59.0,38.0,29.96,ENE,66,6.0,15.0,45,-99.99,,,-99.99,0.000000,,2013-11-05 05:03:00,
2013-11-04 22:43:00,60.0,36.0,29.95,SW,223,20.0,41.0,41,-99.99,,,-99.99,0.000000,,2013-11-05 05:43:00,
2013-11-04 23:42:00,60.0,37.0,29.95,SW,233,14.0,27.0,42,-99.99,,,-99.99,0.000000,,2013-11-05 06:42:00,